Location: Newark
(48.3453°N, 0.5589°E)
Time: 22:33:44
(UTC+00:00)

A-11 Canister half - Pass Details

Date: 06 December 2019
Orbit: 1517 x 1683 km, 47.2° (Epoch: 22 January)

Event Time Altitude Azimuth Distance (km) Brightness Sun altitude
Rises 11:33:03 0° 196° (SSW) 4,736 12.9 19.1°
Reaches altitude 10° 11:36:43 10° 184° (S) 3,781 13.3 19.1°
Maximum altitude 11:44:14 27° 132° (SE) 2,748 11.2 19.2°
Drops below altitude 10° 11:51:57 10° 80° (E) 3,896 11.1 19.2°
Sets 11:55:46 0° 70° (ENE) 4,907 11.4 19.1°
